AO-07 1 07530U 74089B 26258.06507287 -.00000046 00000-0 15815-5 0 9997 2 07530 101.9919 272.2514 0012038 321.1454 55.4981 12.53699637371783 UO-11 1 14781U 84021B 26258.15605542 .00001045 00000-0 11138-3 0 9994 2 14781 97.8171 222.7881 0006123 241.6198 118.4403 14.90992025270538 LO-19 1 20442U 90005G 26258.04326875 .00000058 00000-0 37314-4 0 9999 2 20442 98.8822 282.3126 0010620 305.7429 54.2766 14.34143949915270 AO-27 1 22825U 93061C 26258.20098932 .00000067 00000-0 42264-4 0 9999 2 22825 98.6795 325.5439 0008198 188.7398 171.3643 14.30961318719879 FO-29 1 24278U 96046B 26257.77000938 -.00000013 00000-0 23965-4 0 9998 2 24278 98.5169 94.3605 0349156 223.8390 133.4549 13.53278006485286 GO-32 1 25397U 98043D 26258.25590520 .00000024 00000-0 30541-4 0 9994 2 25397 99.0153 253.3205 0001018 11.5071 348.6130 14.24442832464159 ISS 1 25544U 98067A 26258.17538348 .00006015 00000-0 11677-3 0 9999 2 25544 51.6311 214.7209 0004917 142.0099 218.1237 15.49120584585708 NO-44 1 26931U 01043C 26258.04943116 .00000077 00000-0 59703-4 0 9992 2 26931 67.0530 11.8402 0005752 272.6615 87.3828 14.31983774303311 SO-50 1 27607U 02058C 26257.29580827 .00000780 00000-0 10940-3 0 9992 2 27607 64.5515 213.2481 0072027 246.1134 113.2415 14.83210726277670 CO-55 1 27844U 03031E 26257.88277865 .00000203 00000-0 10655-3 0 9990 2 27844 98.6771 265.3288 0008416 287.5666 72.4594 14.24381321204442 RS-22 1 27939U 03042A 26258.33317192 .00000726 00000-0 11976-3 0 9993 2 27939 98.3477 85.2648 0011130 349.5319 134.2020 14.73600249228823 CO-65 1 32785U 08021C 26258.24932164 .00004688 00000-0 29107-3 0 9998 2 32785 97.8377 241.6378 0010377 83.6382 276.6028 15.10164639998785 CO-66 1 32791U 08021J 26257.75256800 .00016575 00000-0 48157-3 0 9990 2 32791 97.7564 260.1472 0003013 41.9825 318.1648 15.35554944 1018 RS-30 1 32953U 08025A 26258.23393662 .00000060 00000-0 35735-3 0 9996 2 32953 82.5022 299.4375 0020694 114.3285 245.9959 12.43183158830883 SRMSAT 1 37841U 11058D 26258.21811056 .00000377 00000-0 60492-4 0 9997 2 37841 19.9709 234.5227 0011964 114.3673 357.2476 14.11592487770551 ZACUBE-1 1 39417U 13066B 26257.84282502 .00004434 00000-0 33927-3 0 9995 2 39417 97.8141 220.6409 0039756 313.2857 46.5052 15.01806718694185 Delfi-N3xt 1 39428U 13066N 26258.23246952 .00005124 00000-0 43835-3 0 9996 2 39428 97.8289 178.4994 0071428 267.1070 92.1975 14.96089267688083 GOMX-1 1 39430U 13066Q 26258.26637274 .00001451 00000-0 22210-3 0 9996 2 39430 97.6433 93.0519 0128616 147.4078 213.5151 14.69695547683141 LO-74 1 39440U 13066AA 26258.27701709 .00003827 00000-0 35022-3 0 9997 2 39440 97.8986 207.7044 0058717 88.5680 272.2265 14.94267731690449 AO-73 1 39444U 13066AE 26257.91175247 .00006168 00000-0 37276-3 0 9997 2 39444 97.8385 231.3522 0033442 257.6109 102.1376 15.10593009693203 DTUSAT-2 1 40030U 14033W 26257.96524878 .00006463 00000-0 34000-3 0 9998 2 40030 98.0918 261.4902 0006147 294.1085 65.9503 15.16022038666289 LILACSAT-2 1 40908U 15049K 26258.22838723 .00017356 00000-0 26697-3 0 9993 2 40908 97.4557 298.6343 0004585 284.7196 75.3550 15.54286942609729 Lapan A3 1 41603U 16040E 26258.31329601 .00003285 00000-0 10328-3 0 9998 2 41603 97.1568 251.5652 0011780 58.1076 302.1312 15.33599653568620 CAS-2T 1 41847U 16066G 26258.20167431 .00000931 00000-0 13998-3 0 9996 2 41847 98.3753 332.9012 0340544 216.2262 141.5433 14.44842173517790 TechnoSat 1 42829U 17042E 26258.19512634 .00002862 00000-0 20299-3 0 9996 2 42829 97.4397 52.5208 0018222 143.2712 216.9768 15.05398398500244 AO-91 1 43017U 17073E 26257.40839724 .00006482 00000-0 27555-3 0 9999 2 43017 97.4553 122.8013 0148012 20.8764 339.8426 15.13898921478887 S-Net D 1 43186U 18014G 26258.16695343 .00004319 00000-0 21941-3 0 9993 2 43186 97.5251 162.3896 0009789 70.6141 289.6150 15.17380945472401 S-Net B 1 43187U 18014H 26257.71861187 .00004075 00000-0 20737-3 0 9996 2 43187 97.5256 161.9334 0010365 67.8696 292.3637 15.17346186472336 S-Net A 1 43188U 18014J 26258.16533871 .00004418 00000-0 22427-3 0 9992 2 43188 97.5267 162.6034 0010289 67.2425 292.9894 15.17389518472408 S-Net C 1 43189U 18014K 26258.18466290 .00004014 00000-0 20432-3 0 9991 2 43189 97.5284 162.7114 0011530 60.3040 299.9340 15.17339702470956 Ten-Koh 1 43677U 18084G 26257.12838954 .00001128 00000-0 88215-4 0 9990 2 43677 98.0737 93.2551 0009497 169.8595 190.2822 15.03244063429524 PO-101 1 43678U 18084H 26258.32235633 .00000995 00000-0 83669-4 0 9998 2 43678 98.1171 98.4985 0011587 226.1412 133.8854 15.00726450429737 QO-100 1 43700U 18090A 26258.07917146 .00000137 00000-0 00000-0 0 9991 2 43700 0.0219 242.9421 0002426 319.6172 205.8071 1.00272891 28570 MinXSS-2 1 43758U 18099A 26258.21385947 .00046727 00000-0 73967-3 0 9997 2 43758 97.4443 337.5159 0005059 287.0111 73.0588 15.53288045428075 AO-95 1 43770U 18099N 26258.14687430 .00009819 00000-0 35712-3 0 9992 2 43770 97.4286 318.1266 0008981 39.2488 320.9401 15.28418506426951 SNUSat 2 1 43782U 18099AA 26257.91682598 .00007050 00000-0 30209-3 0 9990 2 43782 97.3965 309.9537 0009384 350.5670 9.5389 15.23034708426684 SnugLite 1 43784U 18099AC 26257.59583044 .00008774 00000-0 31553-3 0 9999 2 43784 97.3772 311.0608 0002220 10.3241 349.8044 15.28853238426974 ITASat 1 1 43786U 18099AE 26258.03968865 .00005889 00000-0 27574-3 0 9991 2 43786 97.3934 307.7753 0013220 44.6528 315.5769 15.20023880426551 EAGLET 1 1 43790U 18099AJ 26258.11575592 .00003070 00000-0 17478-3 0 9998 2 43790 97.4138 305.3940 0011985 41.7296 318.4847 15.13511658425938 ESEO 1 43792U 18099AL 26258.04242387 .00001686 00000-0 12448-3 0 9998 2 43792 97.3907 291.5635 0012627 32.7978 327.4030 15.04468600425315 JO-97 1 43803U 18099AX 26257.40456493 .00013172 00000-0 37443-3 0 9990 2 43803 97.4033 320.6747 0004078 322.4190 37.6768 15.36281570427317 Suomi 100 1 43804U 18099AY 26257.90806787 .00011798 00000-0 40468-3 0 9994 2 43804 97.4088 318.0438 0008409 329.8826 30.1930 15.30288745427139 ISAT 1 43879U 18111D 26256.78317077 .00446750 82188-4 11594-2 0 9993 2 43879 97.5792 200.3334 0007766 127.9061 232.2917 15.94996121425126 UWE-4 1 43880U 18111E 26258.27567924 .00040780 00000-0 68255-3 0 9998 2 43880 97.5819 191.1833 0007078 23.5574 336.6000 15.51746347424728 Prox-1 1 44339U 19036A 26258.23634495 .00012866 00000-0 11946-2 0 9997 2 44339 23.9941 231.8139 0005131 5.1673 354.8880 14.92494412386937 Taurus 1 1 44530U 19059C 26258.21044771 .00002277 00000-0 36408-3 0 9991 2 44530 98.6496 68.7310 0008872 35.2106 324.9685 14.72883697371897 TO-108 1 44881U 19093C 26258.23997898 .00000944 00000-0 11223-3 0 9994 2 44881 97.7458 328.2450 0014197 145.0389 215.1762 14.86635665364796 RS-44 1 44909U 19096E 26258.06775567 .00000007 00000-0 -89256-5 0 9990 2 44909 82.5171 279.9824 0216429 294.3608 63.5037 12.79749354313843 SALSAT 1 46495U 20068K 26257.26571775 .00005740 00000-0 19484-3 0 9991 2 46495 97.8883 265.8489 0009221 1.1573 358.9687 15.30910957328982 CSS (TIANHE-1) 1 48274U 21035A 26258.03278496 .00020529 00000-0 25072-3 0 9995 2 48274 41.4675 136.5170 0002662 279.9553 80.0985 15.59945520307198 TeikyoSat 4 1 49396U 21102B 26257.07210072 .00001382 00000-0 89264-4 0 9995 2 49396 97.3629 283.0948 0011702 355.1823 4.9292 15.09771114266131 Z-Sat 1 49399U 21102E 26258.34020877 .00003115 00000-0 15231-3 0 9999 2 49399 97.3263 290.9330 0014712 295.3463 64.6248 15.18854034267126 KOSEN 1 1 49402U 21102H 26257.89367789 .00006390 00000-0 23666-3 0 9998 2 49402 97.3104 298.3400 0011680 246.4600 113.5413 15.27934368267718 HO-113 1 50466U 21131B 26258.29729381 .00000379 00000-0 13042-3 0 9995 2 50466 98.4977 350.1968 0004137 171.4360 188.6901 14.41425301248097 SNUGLITE 2 1 52899U 22065F 26257.12967346 .00000711 00000-0 14331-3 0 9992 2 52899 98.2334 41.8751 0008691 103.2455 256.9717 14.64484178224017 UmKA 1 (RS40S) 1 57172U 23091G 26258.27352332 .00004992 00000-0 22336-3 0 9990 2 57172 97.4953 316.6344 0013066 158.4077 201.7713 15.21679142177707 CubeBel-2 (EU11S) 1 57175U 23091K 26258.23209693 .00011573 00000-0 38718-3 0 9994 2 57175 97.4953 322.3379 0010188 149.0070 211.1774 15.31089861178070 RS-38S 1 57189U 23091Z 26258.23130576 .00017108 00000-0 44973-3 0 9992 2 57189 97.5004 329.6530 0008093 107.3103 252.9028 15.38629168178520 SONATE-2 1 59112U 24043Q 26257.24223457 .00044891 00000-0 44284-3 0 9993 2 59112 97.5625 53.6316 0005343 228.2755 131.8048 15.65799600141799 GRBBeta 1 60237U 24128C 26257.60185898 .00002602 00000-0 18506-3 0 9995 2 60237 61.9882 262.4211 0027539 154.3280 205.9187 15.07172117119747 Curium One 1 60242U 24128H 26258.24452032 .00006364 00000-0 36175-3 0 9990 2 60242 61.9770 246.5217 0026549 149.5229 210.7417 15.13625514120087 ROBUSTA-3A 1 60243U 24128J 26257.53451726 .00004225 00000-0 25053-3 0 9998 2 60243 61.9848 252.0204 0028657 146.1447 214.1486 15.12709545119931 CatSat 1 60246U 24125J 26257.36025011 .00090279 00000-0 69832-3 0 9990 2 60246 97.1950 111.7636 0015239 199.4227 160.6457 15.71456844121334 AO-123 1 61781U 24199AY 26258.24682092 .00007311 00000-0 20469-3 0 9990 2 61781 97.2842 126.1112 0013067 353.2861 6.8207 15.36848380147759 LASARsat 1 62391U 24247Q 26257.99541706 .00044169 00000-0 71671-3 0 9992 2 62391 44.9714 115.4308 0009238 202.9270 157.1211 15.52047219 97244 CroCube 1 62394U 24247T 26257.98595561 .00053579 00000-0 78003-3 0 9993 2 62394 44.9693 111.0010 0010021 212.8410 147.1861 15.54950153 97290 JINJUSat 1B 1 63210U 25052A 26257.98673777 .00017829 00000-0 50884-3 0 9997 2 63210 97.3863 154.9687 0005065 108.7719 251.4075 15.36082318 83876 NUSHSAT 1 1 63211U 25052B 26257.21560938 .00018801 00000-0 48442-3 0 9996 2 63211 97.3841 155.1119 0004741 111.4617 248.7134 15.39244008 83823 TEVEL2-4 1 63213U 25052D 26258.14333006 .00019036 00000-0 51816-3 0 9995 2 63213 97.3758 154.8114 0004234 118.1126 242.0547 15.37548367 83928 TEVEL2-5 1 63214U 25052E 26257.19900914 .00016377 00000-0 44998-3 0 9996 2 63214 97.3760 153.7827 0003990 121.8177 238.3456 15.37290811 83774 TEVEL2-6 1 63215U 25052F 26257.66897181 .00016538 00000-0 45460-3 0 9994 2 63215 97.3762 154.2394 0003945 121.0842 239.0791 15.37274681 83848 TEVEL2-1 1 63217U 25052H 26257.66707575 .00015494 00000-0 43503-3 0 9999 2 63217 97.3734 153.7478 0003808 131.2742 228.8831 15.36629515 83824 TEVEL2-3 1 63218U 25052J 26257.20203382 .00015751 00000-0 44131-3 0 9991 2 63218 97.3740 153.3169 0003587 130.0366 230.1193 15.36692641 83757 TEVEL2-2 1 63219U 25052K 26257.99228817 .00019570 00000-0 54807-3 0 9992 2 63219 97.3733 154.0780 0003836 131.1173 229.0403 15.36658298 83876 TEVEL2-9 1 63237U 25052AD 26258.15754589 .00016084 00000-0 48386-3 0 9993 2 63237 97.3794 153.4084 0006181 160.5680 199.5799 15.34438230 83811 TEVEL2-7 1 63238U 25052AE 26257.23928220 .00013608 00000-0 41497-3 0 9992 2 63238 97.3798 152.3641 0006045 165.1974 194.9447 15.34047126 83661 TEVEL2-8 1 63239U 25052AF 26257.96580514 .00016522 00000-0 50295-3 0 9997 2 63239 97.3799 153.0649 0006168 162.0883 198.0579 15.34058901 83776 SPIRONE 1 66657U 25274H 26257.75246312 .00001919 00000-0 18578-3 0 9994 2 66657 97.7479 185.7785 0013618 77.5978 282.6765 14.93843436 43590 K-HERO 1 66660U 25274L 26258.26856306 .00001600 00000-0 15421-3 0 9996 2 66660 97.7487 186.5136 0015446 79.6906 280.6054 14.94238566 43689 SNUGLITE-III DURI 1 66661U 25274M 26257.51836132 .00001019 00000-0 10009-3 0 9990 2 66661 97.7484 185.7936 0016073 82.6528 277.6518 14.94245093 43579 SAKHACUBE-CHOLBON 1 67290U 25313AU 26257.95181331 .00009566 00000-0 37061-3 0 9997 2 67290 97.3858 331.9200 0009837 47.3252 312.8814 15.26322379 39665 RS95S (QMR-KWT-2) 1 67291U 25313AV 26258.16529676 .00013337 00000-0 48410-3 0 9991 2 67291 97.3854 332.5390 0009120 44.3749 315.8220 15.28399366 39725 Ten-Koh2 1 68261U 25241B 26257.96175839 .00005444 00000-0 22924-3 0 9996 2 68261 51.6600 252.0303 0008232 81.9258 278.2655 15.24871968 28608 JACK-002 1 68417U 26067B 26257.83056382 .00006608 00000-0 30674-3 0 9997 2 68417 97.4670 215.4197 0001850 27.3352 332.7980 15.20357543 25561 DISCO 2 1 68431U 26067R 26257.86376873 .00007607 00000-0 35350-3 0 9992 2 68431 97.4702 215.4528 0003855 65.1284 295.0351 15.20262456 25563 HADES-SA (SpinnyONE) 1 68446U 26067AG 26257.13278174 .00016781 00000-0 74041-3 0 9996 2 68446 97.4486 214.3133 0008725 115.2575 244.9566 15.21806279 25445 PARUS-6U1 1 68456U 26067AS 26258.10443181 .00005482 00000-0 27021-3 0 9999 2 68456 97.4655 215.1825 0007352 105.8051 254.3994 15.18329489 25573 SAL-E 1 68458U 26067AU 26257.15375359 .00006927 00000-0 33524-3 0 9996 2 68458 97.4575 214.1450 0007477 115.2102 244.9909 15.18870070 25432 FSI-SAT 2 1 68792U 26088A 26257.84912058 .00003520 00000-0 23586-3 0 9992 2 68792 97.5194 44.9641 0014797 155.9273 204.2650 15.07437900 21791 OrigamiSat 2 1 68795U 26088D 26258.17395386 .00011908 00000-0 72339-3 0 9990 2 68795 97.5181 45.7529 0015442 128.3406 231.9214 15.10536386 21878 ARICA 2 1 68796U 26088E 26258.22718868 .00004664 00000-0 29773-3 0 9996 2 68796 97.5193 45.6684 0016544 127.1783 233.0960 15.09041144 21874 WASEDA-SAT-ZERO-II 1 68797U 26088F 26258.20231837 .00005463 00000-0 34354-3 0 9990 2 68797 97.5188 45.6953 0016433 126.4716 233.8030 15.09517126 21877 MANGARO-II-Piscus 1 68798U 26088G 26258.19409123 .00002900 00000-0 18496-3 0 9996 2 68798 97.5201 45.7273 0020013 129.7890 230.5106 15.09330375 21875 CO-128 1 69912U 26156AV 26258.14312334 .00001390 00000-0 14634-3 0 9995 2 69912 97.7475 157.3485 0000964 280.7893 79.3217 14.90945349 10409 MARINA 1 69920U 26156BD 26257.68555158 .00001779 00000-0 18021-3 0 9990 2 69920 97.7444 156.9989 0006002 290.1030 69.9543 14.92163436 10346 IO-86 1 40931U 26199.45381863 .00000000 00000-0 77536-4 0 07 2 40931 6.0006 322.6653 0012733 338.8432 273.6875 14.79294310 03 LILIUM-4 1 71922C 26067AC 26089.50133053 -.00014632 00000 0 -74472-3 0 04 2 71922 97.4497 49.1617 0004341 5.9603 355.7042 15.16896692 16